Time,TemperatureF,DewpointF,PressureIn,WindDirection,WindDirectionDegrees,WindSpeedMPH,WindSpeedGustMPH,Humidity,HourlyPrecipIn,Conditions,Clouds,dailyrainin,SoftwareType,DateUTC
2013-05-23 00:00:00,39.0,-99.9,-100.00,North,-999,-999.0,-999.0,-999,0.01,,,0.80,,2013-05-23 07:00:00,
2013-05-23 00:22:00,39.0,-99.9,-100.00,North,-999,-999.0,-999.0,-999,0.01,,,0.80,,2013-05-23 07:22:00,
2013-05-23 00:32:00,39.0,-99.9,-100.00,North,-999,-999.0,-999.0,-999,0.01,,,0.80,,2013-05-23 07:32:00,
2013-05-23 00:42:00,39.0,-99.9,-100.00,North,-999,-999.0,-999.0,-999,0.01,,,0.80,,2013-05-23 07:42:00,
2013-05-23 00:59:00,39.0,-99.9,-100.00,North,-999,-999.0,-999.0,-999,0.01,,,0.80,,2013-05-23 07:59:00,
2013-05-23 01:00:00,39.0,-99.9,-100.00,North,-999,-999.0,-999.0,-999,0.02,,,0.80,,2013-05-23 08:00:00,
2013-05-23 01:22:00,39.0,-99.9,-100.00,North,-999,-999.0,-999.0,-999,0.02,,,0.80,,2013-05-23 08:22:00,
2013-05-23 01:32:00,39.0,-99.9,-100.00,North,-999,-999.0,-999.0,-999,0.02,,,0.80,,2013-05-23 08:32:00,
2013-05-23 01:42:00,39.0,-99.9,-100.00,North,-999,-999.0,-999.0,-999,0.02,,,0.80,,2013-05-23 08:42:00,
2013-05-23 01:52:00,39.0,-99.9,-100.00,North,-999,-999.0,-999.0,-999,0.02,,,0.80,,2013-05-23 08:52:00,
2013-05-23 02:00:00,39.0,-99.9,-100.00,North,-999,-999.0,-999.0,-999,0.02,,,0.78,,2013-05-23 09:00:00,
2013-05-23 02:22:00,39.0,-99.9,-100.00,North,-999,-999.0,-999.0,-999,0.02,,,0.78,,2013-05-23 09:22:00,
2013-05-23 02:33:00,39.0,-99.9,-100.00,North,-999,-999.0,-999.0,-999,0.02,,,0.78,,2013-05-23 09:33:00,
2013-05-23 02:42:00,39.0,-99.9,-100.00,North,-999,-999.0,-999.0,-999,0.02,,,0.78,,2013-05-23 09:42:00,
2013-05-23 02:53:00,39.0,-99.9,-100.00,North,-999,-999.0,-999.0,-999,0.02,,,0.78,,2013-05-23 09:53:00,
2013-05-23 03:00:00,39.0,-99.9,-100.00,North,-999,-999.0,-999.0,-999,0.01,,,0.78,,2013-05-23 10:00:00,
2013-05-23 03:22:00,39.0,-99.9,-100.00,North,-999,-999.0,-999.0,-999,0.01,,,0.78,,2013-05-23 10:22:00,
2013-05-23 03:33:00,39.0,-99.9,-100.00,North,-999,-999.0,-999.0,-999,0.01,,,0.78,,2013-05-23 10:33:00,
2013-05-23 03:42:00,39.0,-99.9,-100.00,North,-999,-999.0,-999.0,-999,0.01,,,0.78,,2013-05-23 10:42:00,
2013-05-23 03:52:00,39.0,-99.9,-100.00,North,-999,-999.0,-999.0,-999,0.01,,,0.78,,2013-05-23 10:52:00,
2013-05-23 04:00:00,39.0,-99.9,-100.00,North,-999,-999.0,-999.0,-999,0.00,,,0.75,,2013-05-23 11:00:00,
2013-05-23 04:22:00,39.0,-99.9,-100.00,North,-999,-999.0,-999.0,-999,0.00,,,0.75,,2013-05-23 11:22:00,
2013-05-23 04:32:00,39.0,-99.9,-100.00,North,-999,-999.0,-999.0,-999,0.00,,,0.75,,2013-05-23 11:32:00,
2013-05-23 04:42:00,39.0,-99.9,-100.00,North,-999,-999.0,-999.0,-999,0.00,,,0.75,,2013-05-23 11:42:00,
2013-05-23 04:52:00,39.0,-99.9,-100.00,North,-999,-999.0,-999.0,-999,0.00,,,0.75,,2013-05-23 11:52:00,
2013-05-23 05:00:00,39.0,-99.9,-100.00,North,-999,-999.0,-999.0,-999,0.00,,,0.68,,2013-05-23 12:00:00,
2013-05-23 05:22:00,39.0,-99.9,-100.00,North,-999,-999.0,-999.0,-999,0.00,,,0.68,,2013-05-23 12:22:00,
2013-05-23 05:33:00,39.0,-99.9,-100.00,North,-999,-999.0,-999.0,-999,0.00,,,0.68,,2013-05-23 12:33:00,
2013-05-23 05:42:00,39.0,-99.9,-100.00,North,-999,-999.0,-999.0,-999,0.00,,,0.68,,2013-05-23 12:42:00,
2013-05-23 05:52:00,39.0,-99.9,-100.00,North,-999,-999.0,-999.0,-999,0.00,,,0.68,,2013-05-23 12:52:00,
2013-05-23 06:00:00,39.0,-99.9,-100.00,North,-999,-999.0,-999.0,-999,0.00,,,0.63,,2013-05-23 13:00:00,
2013-05-23 06:22:00,39.0,-99.9,-100.00,North,-999,-999.0,-999.0,-999,0.00,,,0.63,,2013-05-23 13:22:00,
2013-05-23 06:32:00,39.0,-99.9,-100.00,North,-999,-999.0,-999.0,-999,0.00,,,0.63,,2013-05-23 13:32:00,
2013-05-23 06:42:00,39.0,-99.9,-100.00,North,-999,-999.0,-999.0,-999,0.00,,,0.63,,2013-05-23 13:42:00,
2013-05-23 06:52:00,39.0,-99.9,-100.00,North,-999,-999.0,-999.0,-999,0.00,,,0.63,,2013-05-23 13:52:00,
2013-05-23 07:00:00,40.0,-99.9,-100.00,North,-999,-999.0,-999.0,-999,0.00,,,0.54,,2013-05-23 14:00:00,
2013-05-23 07:22:00,40.0,-99.9,-100.00,North,-999,-999.0,-999.0,-999,0.00,,,0.54,,2013-05-23 14:22:00,
2013-05-23 07:32:00,40.0,-99.9,-100.00,North,-999,-999.0,-999.0,-999,0.00,,,0.54,,2013-05-23 14:32:00,
2013-05-23 07:42:00,40.0,-99.9,-100.00,North,-999,-999.0,-999.0,-999,0.00,,,0.54,,2013-05-23 14:42:00,
2013-05-23 07:52:00,40.0,-99.9,-100.00,North,-999,-999.0,-999.0,-999,0.00,,,0.54,,2013-05-23 14:52:00,
2013-05-23 08:00:00,40.0,-99.9,-100.00,North,-999,-999.0,-999.0,-999,0.00,,,0.44,,2013-05-23 15:00:00,
2013-05-23 08:22:00,40.0,-99.9,-100.00,North,-999,-999.0,-999.0,-999,0.00,,,0.44,,2013-05-23 15:22:00,
2013-05-23 08:33:00,40.0,-99.9,-100.00,North,-999,-999.0,-999.0,-999,0.00,,,0.44,,2013-05-23 15:33:00,
2013-05-23 08:43:00,40.0,-99.9,-100.00,North,-999,-999.0,-999.0,-999,0.00,,,0.44,,2013-05-23 15:43:00,
2013-05-23 08:54:00,40.0,-99.9,-100.00,North,-999,-999.0,-999.0,-999,0.00,,,0.44,,2013-05-23 15:54:00,
2013-05-23 09:00:00,41.0,-99.9,-100.00,North,-999,-999.0,-999.0,-999,0.01,,,0.41,,2013-05-23 16:00:00,
2013-05-23 09:23:00,41.0,-99.9,-100.00,North,-999,-999.0,-999.0,-999,0.01,,,0.41,,2013-05-23 16:23:00,
2013-05-23 09:34:00,41.0,-99.9,-100.00,North,-999,-999.0,-999.0,-999,0.01,,,0.41,,2013-05-23 16:34:00,
2013-05-23 09:43:00,41.0,-99.9,-100.00,North,-999,-999.0,-999.0,-999,0.01,,,0.41,,2013-05-23 16:43:00,
2013-05-23 09:53:00,41.0,-99.9,-100.00,North,-999,-999.0,-999.0,-999,0.01,,,0.41,,2013-05-23 16:53:00,
2013-05-23 10:00:00,43.0,-99.9,-100.00,North,-999,-999.0,-999.0,-999,0.00,,,0.36,,2013-05-23 17:00:00,
2013-05-23 10:23:00,43.0,-99.9,-100.00,North,-999,-999.0,-999.0,-999,0.00,,,0.36,,2013-05-23 17:23:00,
2013-05-23 10:34:00,43.0,-99.9,-100.00,North,-999,-999.0,-999.0,-999,0.00,,,0.36,,2013-05-23 17:34:00,
2013-05-23 10:43:00,43.0,-99.9,-100.00,North,-999,-999.0,-999.0,-999,0.00,,,0.36,,2013-05-23 17:43:00,
2013-05-23 10:53:00,43.0,-99.9,-100.00,North,-999,-999.0,-999.0,-999,0.00,,,0.36,,2013-05-23 17:53:00,
2013-05-23 11:00:00,43.0,-99.9,-100.00,North,-999,-999.0,-999.0,-999,0.02,,,0.32,,2013-05-23 18:00:00,
2013-05-23 11:22:00,43.0,-99.9,-100.00,North,-999,-999.0,-999.0,-999,0.02,,,0.32,,2013-05-23 18:22:00,
2013-05-23 11:33:00,43.0,-99.9,-100.00,North,-999,-999.0,-999.0,-999,0.02,,,0.32,,2013-05-23 18:33:00,
2013-05-23 11:42:00,43.0,-99.9,-100.00,North,-999,-999.0,-999.0,-999,0.02,,,0.32,,2013-05-23 18:42:00,
2013-05-23 11:52:00,43.0,-99.9,-100.00,North,-999,-999.0,-999.0,-999,0.02,,,0.32,,2013-05-23 18:52:00,
2013-05-23 12:00:00,43.0,-99.9,-100.00,North,-999,-999.0,-999.0,-999,0.04,,,0.28,,2013-05-23 19:00:00,
2013-05-23 12:22:00,43.0,-99.9,-100.00,North,-999,-999.0,-999.0,-999,0.04,,,0.28,,2013-05-23 19:22:00,
2013-05-23 12:32:00,43.0,-99.9,-100.00,North,-999,-999.0,-999.0,-999,0.04,,,0.28,,2013-05-23 19:32:00,
2013-05-23 12:42:00,43.0,-99.9,-100.00,North,-999,-999.0,-999.0,-999,0.04,,,0.28,,2013-05-23 19:42:00,
2013-05-23 12:52:00,43.0,-99.9,-100.00,North,-999,-999.0,-999.0,-999,0.04,,,0.28,,2013-05-23 19:52:00,
2013-05-23 13:00:00,43.0,-99.9,-100.00,North,-999,-999.0,-999.0,-999,0.05,,,0.23,,2013-05-23 20:00:00,
2013-05-23 13:22:00,43.0,-99.9,-100.00,North,-999,-999.0,-999.0,-999,0.05,,,0.23,,2013-05-23 20:22:00,
2013-05-23 13:32:00,43.0,-99.9,-100.00,North,-999,-999.0,-999.0,-999,0.05,,,0.23,,2013-05-23 20:32:00,
2013-05-23 13:42:00,43.0,-99.9,-100.00,North,-999,-999.0,-999.0,-999,0.05,,,0.23,,2013-05-23 20:42:00,
2013-05-23 13:52:00,43.0,-99.9,-100.00,North,-999,-999.0,-999.0,-999,0.05,,,0.23,,2013-05-23 20:52:00,
2013-05-23 14:00:00,43.0,-99.9,-100.00,North,-999,-999.0,-999.0,-999,0.02,,,0.22,,2013-05-23 21:00:00,
2013-05-23 14:22:00,43.0,-99.9,-100.00,North,-999,-999.0,-999.0,-999,0.02,,,0.22,,2013-05-23 21:22:00,
2013-05-23 14:33:00,43.0,-99.9,-100.00,North,-999,-999.0,-999.0,-999,0.02,,,0.22,,2013-05-23 21:33:00,
2013-05-23 14:43:00,43.0,-99.9,-100.00,North,-999,-999.0,-999.0,-999,0.02,,,0.22,,2013-05-23 21:43:00,
2013-05-23 14:53:00,43.0,-99.9,-100.00,North,-999,-999.0,-999.0,-999,0.02,,,0.22,,2013-05-23 21:53:00,
2013-05-23 15:00:00,45.0,-99.9,-100.00,North,-999,-999.0,-999.0,-999,0.00,,,0.21,,2013-05-23 22:00:00,
2013-05-23 15:23:00,45.0,-99.9,-100.00,North,-999,-999.0,-999.0,-999,0.00,,,0.21,,2013-05-23 22:23:00,
2013-05-23 15:33:00,45.0,-99.9,-100.00,North,-999,-999.0,-999.0,-999,0.00,,,0.21,,2013-05-23 22:33:00,
2013-05-23 15:43:00,45.0,-99.9,-100.00,North,-999,-999.0,-999.0,-999,0.00,,,0.21,,2013-05-23 22:43:00,
2013-05-23 15:52:00,45.0,-99.9,-100.00,North,-999,-999.0,-999.0,-999,0.00,,,0.21,,2013-05-23 22:52:00,
2013-05-23 16:00:00,45.0,-99.9,-100.00,North,-999,-999.0,-999.0,-999,0.00,,,0.20,,2013-05-23 23:00:00,
2013-05-23 16:22:00,45.0,-99.9,-100.00,North,-999,-999.0,-999.0,-999,0.00,,,0.20,,2013-05-23 23:22:00,
2013-05-23 16:32:00,45.0,-99.9,-100.00,North,-999,-999.0,-999.0,-999,0.00,,,0.20,,2013-05-23 23:32:00,
2013-05-23 16:42:00,45.0,-99.9,-100.00,North,-999,-999.0,-999.0,-999,0.00,,,0.20,,2013-05-23 23:42:00,
2013-05-23 16:52:00,45.0,-99.9,-100.00,North,-999,-999.0,-999.0,-999,0.00,,,0.20,,2013-05-23 23:52:00,
2013-05-23 17:00:00,46.0,-99.9,-100.00,North,-999,-999.0,-999.0,-999,0.01,,,0.21,,2013-05-24 00:00:00,
2013-05-23 17:22:00,46.0,-99.9,-100.00,North,-999,-999.0,-999.0,-999,0.01,,,0.21,,2013-05-24 00:22:00,
2013-05-23 17:32:00,46.0,-99.9,-100.00,North,-999,-999.0,-999.0,-999,0.01,,,0.21,,2013-05-24 00:32:00,
2013-05-23 17:42:00,46.0,-99.9,-100.00,North,-999,-999.0,-999.0,-999,0.01,,,0.21,,2013-05-24 00:42:00,
2013-05-23 17:52:00,46.0,-99.9,-100.00,North,-999,-999.0,-999.0,-999,0.01,,,0.21,,2013-05-24 00:52:00,
2013-05-23 18:00:00,46.0,-99.9,-100.00,North,-999,-999.0,-999.0,-999,0.00,,,0.21,,2013-05-24 01:00:00,
2013-05-23 18:22:00,46.0,-99.9,-100.00,North,-999,-999.0,-999.0,-999,0.00,,,0.21,,2013-05-24 01:22:00,
2013-05-23 18:32:00,46.0,-99.9,-100.00,North,-999,-999.0,-999.0,-999,0.00,,,0.21,,2013-05-24 01:32:00,
2013-05-23 18:42:00,46.0,-99.9,-100.00,North,-999,-999.0,-999.0,-999,0.00,,,0.21,,2013-05-24 01:42:00,
2013-05-23 18:53:00,46.0,-99.9,-100.00,North,-999,-999.0,-999.0,-999,0.00,,,0.21,,2013-05-24 01:53:00,
2013-05-23 19:00:00,45.0,-99.9,-100.00,North,-999,-999.0,-999.0,-999,0.00,,,0.21,,2013-05-24 02:00:00,
2013-05-23 19:22:00,45.0,-99.9,-100.00,North,-999,-999.0,-999.0,-999,0.00,,,0.21,,2013-05-24 02:22:00,
2013-05-23 19:32:00,45.0,-99.9,-100.00,North,-999,-999.0,-999.0,-999,0.00,,,0.21,,2013-05-24 02:32:00,
2013-05-23 19:42:00,45.0,-99.9,-100.00,North,-999,-999.0,-999.0,-999,0.00,,,0.21,,2013-05-24 02:42:00,
2013-05-23 19:52:00,45.0,-99.9,-100.00,North,-999,-999.0,-999.0,-999,0.00,,,0.21,,2013-05-24 02:52:00,
2013-05-23 20:00:00,44.0,-99.9,-100.00,North,-999,-999.0,-999.0,-999,0.00,,,0.21,,2013-05-24 03:00:00,
2013-05-23 20:22:00,44.0,-99.9,-100.00,North,-999,-999.0,-999.0,-999,0.00,,,0.21,,2013-05-24 03:22:00,
2013-05-23 20:33:00,44.0,-99.9,-100.00,North,-999,-999.0,-999.0,-999,0.00,,,0.21,,2013-05-24 03:33:00,
2013-05-23 20:43:00,44.0,-99.9,-100.00,North,-999,-999.0,-999.0,-999,0.00,,,0.21,,2013-05-24 03:43:00,
2013-05-23 20:53:00,44.0,-99.9,-100.00,North,-999,-999.0,-999.0,-999,0.00,,,0.21,,2013-05-24 03:53:00,
2013-05-23 21:00:00,43.0,-99.9,-100.00,North,-999,-999.0,-999.0,-999,0.00,,,0.21,,2013-05-24 04:00:00,
2013-05-23 21:23:00,43.0,-99.9,-100.00,North,-999,-999.0,-999.0,-999,0.00,,,0.21,,2013-05-24 04:23:00,
2013-05-23 21:33:00,43.0,-99.9,-100.00,North,-999,-999.0,-999.0,-999,0.00,,,0.21,,2013-05-24 04:33:00,
2013-05-23 21:42:00,43.0,-99.9,-100.00,North,-999,-999.0,-999.0,-999,0.00,,,0.21,,2013-05-24 04:42:00,
2013-05-23 21:53:00,43.0,-99.9,-100.00,North,-999,-999.0,-999.0,-999,0.00,,,0.21,,2013-05-24 04:53:00,
2013-05-23 22:00:00,43.0,-99.9,-100.00,North,-999,-999.0,-999.0,-999,0.00,,,0.21,,2013-05-24 05:00:00,
2013-05-23 22:22:00,43.0,-99.9,-100.00,North,-999,-999.0,-999.0,-999,0.00,,,0.21,,2013-05-24 05:22:00,
2013-05-23 22:32:00,43.0,-99.9,-100.00,North,-999,-999.0,-999.0,-999,0.00,,,0.21,,2013-05-24 05:32:00,
2013-05-23 22:42:00,43.0,-99.9,-100.00,North,-999,-999.0,-999.0,-999,0.00,,,0.21,,2013-05-24 05:42:00,
2013-05-23 22:52:00,43.0,-99.9,-100.00,North,-999,-999.0,-999.0,-999,0.00,,,0.21,,2013-05-24 05:52:00,
2013-05-23 23:00:00,43.0,-99.9,-100.00,North,-999,-999.0,-999.0,-999,0.00,,,0.21,,2013-05-24 06:00:00,
2013-05-23 23:22:00,43.0,-99.9,-100.00,North,-999,-999.0,-999.0,-999,0.00,,,0.21,,2013-05-24 06:22:00,
2013-05-23 23:32:00,43.0,-99.9,-100.00,North,-999,-999.0,-999.0,-999,0.00,,,0.21,,2013-05-24 06:32:00,
2013-05-23 23:42:00,43.0,-99.9,-100.00,North,-999,-999.0,-999.0,-999,0.00,,,0.21,,2013-05-24 06:42:00,
2013-05-23 23:52:00,43.0,-99.9,-100.00,North,-999,-999.0,-999.0,-999,0.00,,,0.21,,2013-05-24 06:52:00,